Regional Weather Roundup
Issued by NWS Jackson, KY

Home | Current Version | Previous Version | Graphics & Text | Print | Product List | Glossary On
Versions: 1 2 3 4 5 6 7 8 9 10 11 12 13 14 15 16 17 18 19 20 21 22 23 24 25 26 27 28 29 30 31 32 33 34 35 36 37 38 39 40 41 42 43 44 45 46 47 48 49 50
617
ASUS43 KJKL 261010
RWRJKL

EAST KENTUCKY HOURLY WEATHER ROUNDUP
NATIONAL WEATHER SERVICE JACKSON KY
600 AM EDT THU MAY 26 2016

NOTE: "FAIR" INDICATES FEW OR NO CLOUDS BELOW 12,000 FEET WITH
NO SIGNIFICANT WEATHER AND/OR OBSTRUCTIONS TO VISIBILITY.

* THESE REPORTS ARE NOT UNDER NWS QUALITY CONTROL AND MAY NOT
  REPORT WEATHER SUCH AS PRECIPITATION AND FOG.

KYZ079-080-083-085-087-088-110-112-115-119-120-261100
...EASTERN KENTUCKY...

CITY           SKY/WX    TMP DP  RH WIND       PRES   REMARKS
JACKSON        CLOUDY    68  59  73 CALM      30.13S
LONDON         HVY RAIN  64  61  90 W14G24    30.18R FOG
SOMERSET*      RAIN      63  63 100 CALM      30.18S
MONTICELLO*    RAIN      65  63  93 N8        30.19R FOG
WILLIAMSBURG*  CLOUDY    63  63 100 W3        30.20R
MIDDLESBORO*   CLOUDY    63  61  96 CALM      30.17R
HARLAN APT*      N/A     63  59  88 CALM      30.17S
HAZARD APT*    SUNNY     66  61  82 W3        30.14R
BLACK MTN*       N/A     61  55  82 SW5         N/A
PIKE CO APT*     N/A     70  59  69 S3        30.14S
BIG SANDY APT* PTSUNNY   70  59  69 CALM      30.13S
MOREHEAD APT*  CLOUDY    66  63  88 SW7       30.13R
ASHLAND*       CLOUDY    64  64 100 CALM      30.08S
$$

KYZ035-036-041-042-044-050-067-078-099-261100
...CENTRAL KENTUCKY...

CITY           SKY/WX    TMP DP  RH WIND       PRES   REMARKS
MT STERLING*   LGT RAIN  64  63  94 SW5       30.13R
FLEMING/MASON* DRIZZLE  N/A N/A N/A SW6       30.12R
DANVILLE*      CLOUDY    63  63 100 SW8       30.15R
RICHMOND*      CLOUDY    64  63  94 SW8       30.15R
LEXINGTON      LGT RAIN  65  63  93 S7        30.12R
FRANKFORT      CLOUDY    67  61  81 S9        30.09R
LOUISVILLE     CLOUDY    69  62  78 S6        30.07S
LEBANON*       LGT RAIN  64  64 100 SE10      30.11F
GLASGOW*       PTCLDY    65  64  97 CALM      30.10F
BOWLING GREEN  MOCLDY    65  62  90 CALM      30.09S
$$

KYZ091>093-OHZ055-061-077-WVZ005-015-034-035-042-261100
...SOUTHERN OHIO/WEST VIRGINIA...

CITY           SKY/WX    TMP DP  RH WIND       PRES   REMARKS
COVINGTON      CLOUDY    66  63  90 SW6       30.07R
COLUMBUS       CLOUDY    67  62  84 S5        30.06S
DAYTON         CLOUDY    67  62  84 SW12      30.06S
WILMINGTON     MOCLDY    65  62  90 S5        30.07S
HUNTINGTON     CLOUDY    66  63  90 CALM      30.10S
CHARLESTON       N/A     65  60  84 VRB5      30.14R
PINEVILLE*     CLOUDY    63  58  86 MISG      30.23S
BECKLEY        CLOUDY    63  57  81 SE3       30.20S
BLUEFIELD      LGT RAIN  64  56  75 W6        30.24R
LOGAN CO APT*  CLOUDY    64  63  94 CALM      30.16S
$$

VAZ002-007-008-TNZ017-027-036-066-071-261100
...SOUTHWEST VIRGINIA/EAST TENNESSEE...

CITY           SKY/WX    TMP DP  RH WIND       PRES   REMARKS
WISE*          CLOUDY    66  52  59 CALM      30.23R
JONESVILLE*      N/A     63  61  94 CALM      30.19S
ABINGDON*      CLOUDY    66  62  86 E3        30.21R
BRISTOL        CLOUDY    65  63  93 CALM      30.18R FOG
SEVIERVILLE*   SUNNY     63  59  88 CALM      30.17R
KNOXVILLE      CLOUDY    68  59  73 CALM      30.16R
OAK RIDGE      CLOUDY    68  59  73 SW3       30.17R
CROSSVILLE     CLOUDY    64  61  90 N7        30.21R
NASHVILLE      MOCLDY    65  62  90 S6        30.11S
$$

...KEY TO REMARKS...
VSB - VISIBILITY IN MILES
WCI - WIND CHILL INDEX
HX  - HEAT INDEX

$$




USA.gov is the U.S. government's official web portal to all federal, state and local government web resources and services.